| time (UTC) | temp F | wind direction | speed MPH | gust MPH | rain 1hr in | rain 24hr in | rain mn in | humidity % | barometer mb |
| 20260902163715 | 66 | 294 | 4.0 | 6.0 | 0.00 | 1.11 | 1.11 | 99 | 1017.9 |
| 20260902163210 | 67 | 102 | 0.0 | 1.0 | 0.00 | 1.11 | 1.11 | 99 | 1017.8 |
| 20260902162708 | 66 | 102 | 0.0 | 0.0 | 0.05 | 1.11 | 1.11 | 99 | 1017.7 |
| 20260902162203 | 66 | 102 | 0.0 | 0.0 | 0.05 | 1.11 | 1.11 | 99 | 1017.6 |
| 20260902161658 | 65 | 135 | 3.0 | 3.0 | 0.07 | 1.10 | 1.10 | 99 | 1017.3 |
| 20260902161154 | 65 | 135 | 0.0 | 0.0 | 0.19 | 1.10 | 1.10 | 99 | 1017.9 |
| 20260902160650 | 65 | 137 | 0.0 | 1.0 | 0.31 | 1.09 | 1.09 | 99 | 1018.2 |
| 20260902160144 | 64 | 137 | 0.0 | 1.0 | 0.42 | 1.08 | 1.08 | 99 | 1017.9 |
| 20260902155643 | 64 | 213 | 1.0 | 1.0 | 1.06 | 1.04 | 1.04 | 99 | 1018.4 |
| 20260902155142 | 64 | 132 | 0.0 | 0.0 | 2.03 | 1.00 | 1.00 | 99 | 1018.0 |
| 20260902154637 | 64 | 148 | 0.0 | 0.0 | 1.28 | 0.86 | 0.86 | 99 | 1018.2 |
| 20260902154132 | 64 | 146 | 0.0 | 0.0 | 0.35 | 0.66 | 0.66 | 99 | 1019.0 |
| 20260902153631 | 64 | 156 | 0.0 | 0.0 | 1.72 | 0.65 | 0.65 | 99 | 1017.9 |
| 20260902153126 | 64 | 156 | 0.0 | 0.0 | 1.75 | 0.62 | 0.62 | 99 | 1017.8 |
| 20260902152623 | 64 | 167 | 0.0 | 0.0 | 0.54 | 0.40 | 0.40 | 99 | 1018.1 |
| 20260902152118 | 64 | 156 | 0.0 | 0.0 | 0.19 | 0.33 | 0.33 | 99 | 1018.2 |
| 20260902151614 | 65 | 156 | 0.0 | 0.0 | 0.42 | 0.31 | 0.31 | 99 | 1017.5 |
| 20260902151113 | 65 | 156 | 0.0 | 0.0 | 1.02 | 0.30 | 0.30 | 99 | 1017.6 |
| 20260902150608 | 65 | 156 | 0.0 | 0.0 | 1.39 | 0.25 | 0.25 | 99 | 1017.7 |
| 20260902150103 | 65 | 160 | 0.0 | 0.0 | 0.54 | 0.11 | 0.11 | 99 | 1017.8 |
| 20260902145557 | 65 | 158 | 0.0 | 0.0 | 0.05 | 0.02 | 0.02 | 99 | 1017.5 |
| 20260902145057 | 66 | 157 | 0.0 | 0.0 | 0.12 | 0.02 | 0.02 | 99 | 1017.7 |
| 20260902144554 | 66 | 109 | 0.0 | 0.0 | 0.07 | 0.01 | 0.01 | 99 | 1017.3 |
| 20260902144049 | 66 | 109 | 0.0 | 0.0 | 0.00 | 0.00 | 0.00 | 99 | 1017.2 |
| 20260902143543 | 66 | 109 | 0.0 | 0.0 | 0.00 | 0.00 | 0.00 | 99 | 1017.3 |
| 20260902143039 | 66 | 109 | 0.0 | 0.0 | 0.00 | 0.00 | 0.00 | 99 | 1017.3 |
| 20260902142534 | 66 | 109 | 0.0 | 0.0 | 0.00 | 0.00 | 0.00 | 99 | 1017.3 |
| 20260902142031 | 66 | 109 | 0.0 | 0.0 | 0.00 | 0.00 | 0.00 | 99 | 1017.5 |
| 20260902141530 | 66 | 109 | 0.0 | 0.0 | 0.00 | 0.00 | 0.00 | 99 | 1017.2 |
| 20260902141026 | 66 | 109 | 0.0 | 0.0 | 0.00 | 0.00 | 0.00 | 99 | 1017.4 |
| 20260902140525 | 66 | 109 | 0.0 | 0.0 | 0.00 | 0.00 | 0.00 | 99 | 1017.8 |
| 20260902140021 | 66 | 109 | 0.0 | 0.0 | 0.00 | 0.00 | 0.00 | 99 | 1018.0 |
| 20260902135521 | 66 | 109 | 0.0 | 0.0 | 0.00 | 0.00 | 0.00 | 99 | 1017.6 |
| 20260902135016 | 66 | 109 | 0.0 | 0.0 | 0.00 | 0.00 | 0.00 | 99 | 1017.8 |
| 20260902134512 | 66 | 109 | 0.0 | 0.0 | 0.00 | 0.00 | 0.00 | 99 | 1017.7 |
| 20260902134012 | 67 | 109 | 0.0 | 0.0 | 0.00 | 0.00 | 0.00 | 99 | 1017.5 |
| 20260902133507 | 67 | 109 | 0.0 | 0.0 | 0.00 | 0.00 | 0.00 | 99 | 1017.2 |
| 20260902133006 | 67 | 109 | 0.0 | 0.0 | 0.00 | 0.00 | 0.00 | 99 | 1017.3 |
| 20260902132502 | 67 | 109 | 0.0 | 0.0 | 0.00 | 0.00 | 0.00 | 99 | 1017.0 |
| 20260902131956 | 67 | 152 | 0.0 | 0.0 | 0.00 | 0.00 | 0.00 | 99 | 1017.4 |
| 20260902131453 | 67 | 151 | 0.0 | 0.0 | 0.00 | 0.00 | 0.00 | 99 | 1017.4 |
| 20260902130953 | 67 | 151 | 0.0 | 0.0 | 0.00 | 0.00 | 0.00 | 99 | 1017.2 |
| 20260902130448 | 67 | 151 | 0.0 | 0.0 | 0.00 | 0.00 | 0.00 | 99 | 1017.5 |
| 20260902125943 | 67 | 151 | 0.0 | 0.0 | 0.00 | 0.00 | 0.00 | 99 | 1017.5 |
| 20260902125440 | 67 | 151 | 0.0 | 0.0 | 0.00 | 0.00 | 0.00 | 99 | 1017.6 |
| 20260902124935 | 67 | 151 | 0.0 | 0.0 | 0.00 | 0.00 | 0.00 | 99 | 1017.5 |
| 20260902124431 | 67 | 149 | 0.0 | 0.0 | 0.00 | 0.00 | 0.00 | 99 | 1017.4 |
| 20260902123926 | 67 | 149 | 0.0 | 0.0 | 0.00 | 0.00 | 0.00 | 99 | 1017.2 |
| 20260902123423 | 67 | 149 | 0.0 | 0.0 | 0.00 | 0.00 | 0.00 | 99 | 1017.1 |
| 20260902122920 | 67 | 149 | 0.0 | 0.0 | 0.00 | 0.00 | 0.00 | 99 | 1017.1 |
| 20260902122417 | 67 | 149 | 0.0 | 0.0 | 0.00 | 0.00 | 0.00 | 99 | 1016.8 |
| 20260902121912 | 67 | 149 | 0.0 | 0.0 | 0.00 | 0.00 | 0.00 | 99 | 1016.8 |
| 20260902121407 | 67 | 149 | 0.0 | 0.0 | 0.00 | 0.00 | 0.00 | 99 | 1016.7 |
| 20260902120902 | 68 | 149 | 0.0 | 0.0 | 0.00 | 0.00 | 0.00 | 99 | 1016.7 |
| 20260902120358 | 68 | 148 | 0.0 | 0.0 | 0.00 | 0.00 | 0.00 | 99 | 1016.6 |
| 20260902115857 | 68 | 148 | 0.0 | 0.0 | 0.00 | 0.00 | 0.00 | 99 | 1016.8 |
| 20260902115354 | 67 | 148 | 0.0 | 0.0 | 0.00 | 0.00 | 0.00 | 99 | 1016.8 |
| 20260902114850 | 67 | 148 | 0.0 | 0.0 | 0.00 | 0.00 | 0.00 | 99 | 1016.6 |
| 20260902114346 | 67 | 148 | 0.0 | 0.0 | 0.00 | 0.00 | 0.00 | 99 | 1016.4 |
| 20260902113846 | 67 | 148 | 0.0 | 0.0 | 0.00 | 0.00 | 0.00 | 99 | 1016.7 |
| 20260902113342 | 67 | 149 | 0.0 | 0.0 | 0.00 | 0.00 | 0.00 | 99 | 1016.2 |
| 20260902112841 | 67 | 149 | 0.0 | 0.0 | 0.00 | 0.00 | 0.00 | 99 | 1016.3 |
| 20260902112337 | 67 | 149 | 0.0 | 0.0 | 0.00 | 0.00 | 0.00 | 99 | 1016.3 |
| 20260902111833 | 67 | 192 | 0.0 | 0.0 | 0.00 | 0.00 | 0.00 | 99 | 1016.3 |
| 20260902111329 | 67 | 192 | 0.0 | 0.0 | 0.00 | 0.00 | 0.00 | 99 | 1016.5 |
| 20260902110824 | 67 | 192 | 0.0 | 0.0 | 0.00 | 0.00 | 0.00 | 99 | 1016.4 |
| 20260902110320 | 68 | 192 | 0.0 | 0.0 | 0.00 | 0.00 | 0.00 | 99 | 1016.3 |
| 20260902105820 | 68 | 192 | 0.0 | 0.0 | 0.00 | 0.00 | 0.00 | 99 | 1016.6 |
| 20260902105315 | 68 | 193 | 0.0 | 0.0 | 0.00 | 0.00 | 0.00 | 99 | 1016.6 |
| 20260902104810 | 68 | 193 | 0.0 | 0.0 | 0.00 | 0.00 | 0.00 | 99 | 1016.7 |
| 20260902104307 | 68 | 193 | 0.0 | 0.0 | 0.00 | 0.00 | 0.00 | 99 | 1016.6 |
| 20260902103806 | 68 | 193 | 0.0 | 0.0 | 0.00 | 0.00 | 0.00 | 99 | 1016.6 |
| 20260902103301 | 68 | 193 | 0.0 | 0.0 | 0.00 | 0.00 | 0.00 | 99 | 1016.9 |
| 20260902102756 | 68 | 193 | 0.0 | 0.0 | 0.00 | 0.00 | 0.00 | 99 | 1016.7 |
| 20260902102254 | 68 | 193 | 0.0 | 0.0 | 0.00 | 0.00 | 0.00 | 99 | 1016.7 |
| 20260902101749 | 68 | 193 | 0.0 | 0.0 | 0.00 | 0.00 | 0.00 | 99 | 1016.8 |
| 20260902101244 | 68 | 193 | 0.0 | 0.0 | 0.00 | 0.00 | 0.00 | 99 | 1016.7 |
| 20260902100743 | 68 | 193 | 0.0 | 0.0 | 0.00 | 0.00 | 0.00 | 99 | 1016.8 |
| 20260902100237 | 68 | 193 | 0.0 | 0.0 | 0.00 | 0.00 | 0.00 | 99 | 1016.7 |
| 20260902095732 | 68 | 193 | 0.0 | 0.0 | 0.00 | 0.00 | 0.00 | 99 | 1016.8 |
| 20260902095226 | 68 | 193 | 0.0 | 0.0 | 0.00 | 0.00 | 0.00 | 99 | 1016.6 |
| 20260902094721 | 68 | 193 | 0.0 | 0.0 | 0.00 | 0.00 | 0.00 | 99 | 1016.5 |
| 20260902094218 | 68 | 193 | 0.0 | 0.0 | 0.00 | 0.00 | 0.00 | 99 | 1016.6 |
| 20260902093716 | 68 | 193 | 0.0 | 0.0 | 0.00 | 0.00 | 0.00 | 99 | 1016.9 |
| 20260902093212 | 68 | 193 | 0.0 | 0.0 | 0.00 | 0.00 | 0.00 | 99 | 1016.6 |
| 20260902092712 | 68 | 193 | 0.0 | 0.0 | 0.00 | 0.00 | 0.00 | 99 | 1016.5 |
| 20260902092207 | 68 | 193 | 0.0 | 0.0 | 0.00 | 0.00 | 0.00 | 99 | 1016.6 |
| 20260902091701 | 68 | 193 | 0.0 | 0.0 | 0.00 | 0.00 | 0.00 | 99 | 1016.6 |
| 20260902091158 | 68 | 193 | 0.0 | 0.0 | 0.00 | 0.00 | 0.00 | 99 | 1016.4 |
| 20260902090654 | 68 | 193 | 0.0 | 0.0 | 0.00 | 0.00 | 0.00 | 99 | 1016.7 |
| 20260902090152 | 68 | 193 | 0.0 | 0.0 | 0.00 | 0.00 | 0.00 | 99 | 1016.5 |
| 20260902085647 | 68 | 193 | 0.0 | 0.0 | 0.00 | 0.00 | 0.00 | 99 | 1016.4 |
| 20260902085142 | 68 | 193 | 0.0 | 0.0 | 0.00 | 0.00 | 0.00 | 99 | 1016.4 |
| 20260902084638 | 68 | 192 | 0.0 | 0.0 | 0.00 | 0.00 | 0.00 | 99 | 1016.3 |
| 20260902084134 | 68 | 193 | 0.0 | 0.0 | 0.00 | 0.00 | 0.00 | 99 | 1016.2 |
| 20260902083629 | 68 | 192 | 0.0 | 0.0 | 0.00 | 0.00 | 0.00 | 99 | 1016.5 |
| 20260902083128 | 68 | 193 | 0.0 | 0.0 | 0.00 | 0.00 | 0.00 | 99 | 1016.2 |
| 20260902082624 | 68 | 192 | 0.0 | 0.0 | 0.00 | 0.00 | 0.00 | 99 | 1016.3 |
| 20260902082120 | 68 | 192 | 0.0 | 0.0 | 0.00 | 0.00 | 0.00 | 99 | 1016.2 |
| 20260902081617 | 68 | 192 | 0.0 | 0.0 | 0.00 | 0.00 | 0.00 | 99 | 1016.3 |
| 20260902081116 | 68 | 192 | 0.0 | 0.0 | 0.00 | 0.00 | 0.00 | 99 | 1016.2 |
| 20260902080611 | 68 | 192 | 0.0 | 0.0 | 0.00 | 0.00 | 0.00 | 99 | 1016.2 |
| 20260902080108 | 68 | 192 | 0.0 | 0.0 | 0.00 | 0.00 | 0.00 | 99 | 1016.3 |
| 20260902075607 | 68 | 192 | 0.0 | 0.0 | 0.00 | 0.00 | 0.00 | 99 | 1016.2 |
| 20260902075104 | 68 | 192 | 0.0 | 0.0 | 0.00 | 0.00 | 0.00 | 99 | 1016.4 |
| 20260902074559 | 68 | 192 | 0.0 | 0.0 | 0.00 | 0.00 | 0.00 | 99 | 1016.4 |
| 20260902074054 | 68 | 192 | 0.0 | 0.0 | 0.00 | 0.00 | 0.00 | 99 | 1016.3 |
| 20260902073549 | 68 | 192 | 0.0 | 0.0 | 0.00 | 0.00 | 0.00 | 99 | 1016.2 |
| 20260902073046 | 68 | 192 | 0.0 | 0.0 | 0.00 | 0.00 | 0.00 | 99 | 1015.9 |
| 20260902072541 | 68 | 192 | 0.0 | 0.0 | 0.00 | 0.00 | 0.00 | 99 | 1015.9 |
| 20260902072038 | 68 | 192 | 0.0 | 0.0 | 0.00 | 0.00 | 0.00 | 99 | 1016.2 |
| 20260902071536 | 68 | 192 | 0.0 | 0.0 | 0.00 | 0.00 | 0.00 | 99 | 1016.0 |
| 20260902071033 | 68 | 192 | 0.0 | 0.0 | 0.00 | 0.00 | 0.00 | 99 | 1016.2 |
| 20260902070529 | 68 | 192 | 0.0 | 0.0 | 0.00 | 0.00 | 0.00 | 99 | 1016.3 |
| 20260902070023 | 68 | 192 | 0.0 | 0.0 | 0.00 | 0.00 | 0.00 | 99 | 1016.3 |
| 20260902065517 | 68 | 192 | 0.0 | 0.0 | 0.00 | 0.00 | 0.00 | 99 | 1016.4 |
| 20260902065013 | 68 | 192 | 0.0 | 0.0 | 0.00 | 0.00 | 0.00 | 99 | 1016.4 |
| 20260902064509 | 68 | 192 | 0.0 | 0.0 | 0.00 | 0.00 | 0.00 | 99 | 1016.5 |
| 20260902064004 | 68 | 192 | 0.0 | 0.0 | 0.00 | 0.00 | 0.00 | 99 | 1016.4 |
| 20260902063503 | 68 | 192 | 0.0 | 0.0 | 0.00 | 0.00 | 0.00 | 99 | 1016.3 |
| 20260902062959 | 68 | 192 | 0.0 | 0.0 | 0.00 | 0.00 | 0.00 | 99 | 1016.8 |
| 20260902062457 | 67 | 192 | 0.0 | 0.0 | 0.00 | 0.00 | 0.00 | 99 | 1016.3 |
| 20260902061953 | 68 | 192 | 0.0 | 0.0 | 0.00 | 0.00 | 0.00 | 99 | 1016.3 |
| 20260902061448 | 68 | 192 | 0.0 | 0.0 | 0.00 | 0.00 | 0.00 | 99 | 1016.4 |
| 20260902060944 | 68 | 192 | 0.0 | 0.0 | 0.00 | 0.00 | 0.00 | 99 | 1016.5 |
| 20260902060440 | 68 | 192 | 0.0 | 0.0 | 0.00 | 0.00 | 0.00 | 99 | 1016.4 |
| 20260902055935 | 67 | 192 | 0.0 | 0.0 | 0.00 | 0.00 | 0.00 | 99 | 1016.7 |
| 20260902055431 | 67 | 192 | 0.0 | 0.0 | 0.00 | 0.00 | 0.00 | 99 | 1016.5 |
| 20260902054926 | 67 | 192 | 0.0 | 0.0 | 0.00 | 0.00 | 0.00 | 99 | 1016.6 |
| 20260902054421 | 67 | 192 | 0.0 | 0.0 | 0.00 | 0.00 | 0.00 | 99 | 1016.5 |
| 20260902053917 | 67 | 192 | 0.0 | 0.0 | 0.00 | 0.00 | 0.00 | 99 | 1016.5 |
| 20260902053412 | 67 | 192 | 0.0 | 0.0 | 0.00 | 0.00 | 0.00 | 99 | 1016.6 |
| 20260902052911 | 67 | 192 | 0.0 | 0.0 | 0.00 | 0.00 | 0.00 | 99 | 1016.6 |
| 20260902052406 | 67 | 192 | 0.0 | 0.0 | 0.00 | 0.00 | 0.00 | 99 | 1016.4 |
| 20260902051902 | 68 | 192 | 0.0 | 0.0 | 0.00 | 0.00 | 0.00 | 99 | 1016.4 |
| 20260902051356 | 68 | 192 | 0.0 | 0.0 | 0.00 | 0.00 | 0.00 | 99 | 1016.2 |
| 20260902050855 | 68 | 192 | 0.0 | 0.0 | 0.00 | 0.00 | 0.00 | 99 | 1016.4 |
| 20260902050355 | 68 | 192 | 0.0 | 0.0 | 0.00 | 0.00 | 0.00 | 99 | 1016.4 |
| 20260902045850 | 68 | 192 | 0.0 | 0.0 | 0.00 | 0.00 | 0.00 | 99 | 1016.3 |
| 20260902045346 | 68 | 192 | 0.0 | 0.0 | 0.00 | 0.00 | 0.00 | 99 | 1016.2 |
| 20260902044842 | 68 | 192 | 0.0 | 0.0 | 0.00 | 0.00 | 0.00 | 99 | 1016.3 |
| 20260902044338 | 68 | 192 | 0.0 | 0.0 | 0.00 | 0.00 | 0.00 | 99 | 1016.2 |
| 20260902043837 | 68 | 192 | 0.0 | 0.0 | 0.00 | 0.00 | 0.00 | 99 | 1016.3 |
| 20260902043333 | 68 | 192 | 0.0 | 0.0 | 0.00 | 0.00 | 0.00 | 99 | 1015.9 |
| 20260902042832 | 68 | 192 | 0.0 | 0.0 | 0.00 | 0.00 | 0.00 | 99 | 1015.8 |
| 20260902042327 | 68 | 192 | 0.0 | 0.0 | 0.00 | 0.00 | 0.00 | 99 | 1015.8 |
| 20260902041822 | 68 | 192 | 0.0 | 0.0 | 0.00 | 0.00 | 0.00 | 99 | 1015.8 |
| 20260902041322 | 68 | 192 | 0.0 | 0.0 | 0.00 | 0.00 | 0.00 | 99 | 1015.5 |
| 20260902040821 | 68 | 192 | 0.0 | 0.0 | 0.00 | 0.00 | 0.00 | 99 | 1015.6 |
| 20260902040317 | 68 | 192 | 0.0 | 0.0 | 0.00 | 0.00 | 0.00 | 99 | 1015.7 |
| 20260902035815 | 68 | 192 | 0.0 | 0.0 | 0.00 | 0.37 | 0.37 | 99 | 1015.6 |
| 20260902035311 | 67 | 192 | 0.0 | 0.0 | 0.00 | 0.37 | 0.37 | 99 | 1015.5 |
| 20260902034810 | 68 | 192 | 0.0 | 0.0 | 0.00 | 0.37 | 0.37 | 99 | 1015.4 |
| 20260902034305 | 67 | 192 | 0.0 | 0.0 | 0.00 | 0.37 | 0.37 | 99 | 1015.1 |
| 20260902033803 | 67 | 192 | 0.0 | 0.0 | 0.00 | 0.37 | 0.37 | 99 | 1015.4 |
| 20260902033258 | 67 | 192 | 0.0 | 0.0 | 0.00 | 0.37 | 0.37 | 99 | 1015.4 |
| 20260902032757 | 67 | 192 | 0.0 | 0.0 | 0.00 | 0.37 | 0.37 | 99 | 1015.4 |
| 20260902032252 | 67 | 192 | 0.0 | 0.0 | 0.00 | 0.37 | 0.37 | 99 | 1015.4 |
| 20260902031751 | 67 | 192 | 0.0 | 0.0 | 0.00 | 0.37 | 0.37 | 99 | 1015.3 |
| 20260902031247 | 67 | 192 | 0.0 | 0.0 | 0.00 | 0.37 | 0.37 | 99 | 1015.4 |
| 20260902030743 | 67 | 192 | 0.0 | 0.0 | 0.00 | 0.37 | 0.37 | 99 | 1015.6 |
| 20260902030238 | 67 | 192 | 0.0 | 0.0 | 0.00 | 0.37 | 0.37 | 99 | 1015.4 |
| 20260902025737 | 67 | 192 | 0.0 | 0.0 | 0.00 | 0.37 | 0.37 | 99 | 1015.4 |
| 20260902025232 | 67 | 192 | 0.0 | 0.0 | 0.00 | 0.37 | 0.37 | 99 | 1015.6 |
| 20260902024727 | 67 | 192 | 0.0 | 0.0 | 0.00 | 0.37 | 0.37 | 99 | 1015.7 |
| 20260902024222 | 67 | 192 | 0.0 | 0.0 | 0.00 | 0.37 | 0.37 | 99 | 1015.6 |
| 20260902023718 | 67 | 192 | 0.0 | 0.0 | 0.00 | 0.37 | 0.37 | 99 | 1015.5 |
| 20260902023213 | 67 | 192 | 0.0 | 0.0 | 0.00 | 0.37 | 0.37 | 99 | 1015.4 |
| 20260902022712 | 67 | 192 | 0.0 | 0.0 | 0.00 | 0.37 | 0.37 | 99 | 1015.7 |
| 20260902022208 | 67 | 196 | 0.0 | 0.0 | 0.00 | 0.37 | 0.37 | 99 | 1015.5 |
| 20260902021704 | 67 | 196 | 0.0 | 0.0 | 0.00 | 0.37 | 0.37 | 99 | 1015.5 |
| 20260902021204 | 67 | 196 | 0.0 | 0.0 | 0.00 | 0.37 | 0.37 | 99 | 1015.5 |
| 20260902020700 | 68 | 196 | 0.0 | 0.0 | 0.00 | 0.37 | 0.37 | 99 | 1015.5 |
| 20260902020156 | 68 | 196 | 0.0 | 0.0 | 0.00 | 0.37 | 0.37 | 99 | 1015.5 |
| 20260902015651 | 68 | 196 | 0.0 | 0.0 | 0.00 | 0.37 | 0.37 | 99 | 1015.3 |
| 20260902015148 | 68 | 196 | 0.0 | 0.0 | 0.00 | 0.37 | 0.37 | 99 | 1015.2 |
| 20260902014643 | 68 | 196 | 0.0 | 0.0 | 0.00 | 0.37 | 0.37 | 99 | 1015.2 |
| 20260902014138 | 68 | 196 | 0.0 | 0.0 | 0.00 | 0.37 | 0.37 | 99 | 1015.3 |
| 20260902013637 | 68 | 196 | 0.0 | 0.0 | 0.00 | 0.37 | 0.37 | 99 | 1015.1 |
| 20260902013133 | 68 | 196 | 0.0 | 0.0 | 0.00 | 0.37 | 0.37 | 99 | 1015.1 |
| 20260902012629 | 68 | 196 | 0.0 | 0.0 | 0.00 | 0.37 | 0.37 | 99 | 1014.8 |
| 20260902012124 | 68 | 196 | 0.0 | 0.0 | 0.00 | 0.37 | 0.37 | 99 | 1014.8 |
| 20260902011620 | 69 | 196 | 0.0 | 0.0 | 0.00 | 0.37 | 0.37 | 99 | 1015.1 |
| 20260902011119 | 69 | 196 | 0.0 | 0.0 | 0.00 | 0.37 | 0.37 | 99 | 1014.9 |
| 20260902010613 | 69 | 196 | 0.0 | 0.0 | 0.00 | 0.37 | 0.37 | 99 | 1015.0 |
| 20260902010109 | 69 | 196 | 0.0 | 0.0 | 0.00 | 0.37 | 0.37 | 99 | 1014.8 |
| 20260902005606 | 69 | 196 | 0.0 | 0.0 | 0.00 | 0.37 | 0.37 | 99 | 1014.7 |
| 20260902005103 | 70 | 196 | 0.0 | 0.0 | 0.00 | 0.37 | 0.37 | 99 | 1014.5 |
| 20260902004602 | 70 | 196 | 0.0 | 0.0 | 0.00 | 0.37 | 0.37 | 99 | 1014.6 |
| 20260902004057 | 71 | 196 | 0.0 | 0.0 | 0.00 | 0.37 | 0.37 | 99 | 1014.5 |
| 20260902003552 | 71 | 196 | 0.0 | 0.0 | 0.00 | 0.37 | 0.37 | 99 | 1014.6 |
| 20260902003048 | 71 | 196 | 0.0 | 0.0 | 0.00 | 0.37 | 0.37 | 99 | 1014.7 |
| 20260902002543 | 71 | 196 | 0.0 | 0.0 | 0.00 | 0.37 | 0.37 | 99 | 1014.5 |
| 20260902002038 | 71 | 196 | 0.0 | 0.0 | 0.00 | 0.37 | 0.37 | 99 | 1014.4 |
| 20260902001533 | 71 | 196 | 0.0 | 0.0 | 0.00 | 0.37 | 0.37 | 99 | 1014.2 |
| 20260902001028 | 71 | 196 | 0.0 | 0.0 | 0.00 | 0.37 | 0.37 | 99 | 1014.2 |
| 20260902000523 | 71 | 196 | 0.0 | 0.0 | 0.00 | 0.37 | 0.37 | 99 | 1014.1 |
| 20260902000018 | 72 | 196 | 0.0 | 0.0 | 0.00 | 0.37 | 0.37 | 99 | 1014.0 |
| 20260901235513 | 72 | 196 | 0.0 | 0.0 | 0.00 | 0.37 | 0.37 | 99 | 1014.0 |
| 20260901235008 | 72 | 196 | 0.0 | 0.0 | 0.00 | 0.37 | 0.37 | 99 | 1014.0 |
| 20260901234506 | 72 | 196 | 0.0 | 0.0 | 0.00 | 0.37 | 0.37 | 99 | 1014.1 |
| 20260901234002 | 73 | 196 | 0.0 | 0.0 | 0.00 | 0.37 | 0.37 | 99 | 1014.1 |
| 20260901233457 | 73 | 196 | 0.0 | 0.0 | 0.00 | 0.37 | 0.37 | 99 | 1013.8 |
| 20260901232953 | 73 | 196 | 0.0 | 0.0 | 0.00 | 0.37 | 0.37 | 99 | 1013.9 |
| 20260901232448 | 73 | 196 | 0.0 | 0.0 | 0.00 | 0.37 | 0.37 | 99 | 1013.8 |
| 20260901231943 | 74 | 196 | 0.0 | 0.0 | 0.00 | 0.37 | 0.37 | 99 | 1013.7 |
| 20260901231439 | 74 | 196 | 0.0 | 0.0 | 0.00 | 0.37 | 0.37 | 99 | 1013.6 |
| 20260901230936 | 74 | 196 | 0.0 | 0.0 | 0.00 | 0.37 | 0.37 | 99 | 1013.8 |
| 20260901230436 | 74 | 196 | 0.0 | 0.0 | 0.00 | 0.37 | 0.37 | 99 | 1013.9 |
| 20260901225931 | 74 | 197 | 0.0 | 0.0 | 0.00 | 0.37 | 0.37 | 99 | 1013.9 |
| 20260901225430 | 74 | 197 | 0.0 | 0.0 | 0.00 | 0.37 | 0.37 | 99 | 1013.9 |
| 20260901224925 | 75 | 197 | 0.0 | 0.0 | 0.00 | 0.37 | 0.37 | 98 | 1013.7 |
| 20260901224421 | 76 | 196 | 0.0 | 0.0 | 0.00 | 0.37 | 0.37 | 96 | 1013.6 |
| 20260901223918 | 76 | 197 | 0.0 | 0.0 | 0.00 | 0.37 | 0.37 | 96 | 1013.7 |
| 20260901223413 | 76 | 197 | 0.0 | 0.0 | 0.00 | 0.37 | 0.37 | 95 | 1013.8 |
| 20260901222908 | 77 | 196 | 0.0 | 1.0 | 0.00 | 0.37 | 0.37 | 92 | 1013.8 |
| 20260901222404 | 78 | 242 | 1.0 | 1.0 | 0.00 | 0.37 | 0.37 | 91 | 1013.8 |
| 20260901221900 | 78 | 219 | 1.0 | 2.0 | 0.00 | 0.37 | 0.37 | 91 | 1013.7 |
| 20260901221355 | 78 | 221 | 0.0 | 1.0 | 0.00 | 0.37 | 0.37 | 88 | 1013.8 |
| 20260901220850 | 78 | 231 | 0.0 | 1.0 | 0.00 | 0.37 | 0.37 | 91 | 1013.7 |
| 20260901220348 | 78 | 226 | 0.0 | 0.0 | 0.00 | 0.37 | 0.37 | 90 | 1013.7 |
| 20260901215848 | 78 | 223 | 0.0 | 0.0 | 0.00 | 0.37 | 0.37 | 92 | 1013.6 |
| 20260901215347 | 78 | 223 | 0.0 | 0.0 | 0.00 | 0.37 | 0.37 | 92 | 1013.7 |
| 20260901214846 | 77 | 226 | 1.0 | 2.0 | 0.00 | 0.37 | 0.37 | 91 | 1013.6 |
| 20260901214345 | 77 | 222 | 1.0 | 1.0 | 0.00 | 0.37 | 0.37 | 91 | 1013.5 |
| 20260901213845 | 77 | 222 | 0.0 | 0.0 | 0.00 | 0.37 | 0.37 | 91 | 1013.5 |
| 20260901213340 | 78 | 222 | 0.0 | 1.0 | 0.00 | 0.37 | 0.37 | 90 | 1013.3 |
| 20260901212834 | 79 | 226 | 0.0 | 1.0 | 0.00 | 0.37 | 0.37 | 88 | 1013.3 |
| 20260901212330 | 78 | 169 | 1.0 | 1.0 | 0.00 | 0.37 | 0.37 | 91 | 1013.5 |
| 20260901211826 | 77 | 220 | 0.0 | 1.0 | 0.00 | 0.37 | 0.37 | 92 | 1013.2 |
| 20260901211322 | 78 | 223 | 2.0 | 2.0 | 0.00 | 0.37 | 0.37 | 92 | 1013.5 |
| 20260901210817 | 77 | 193 | 0.0 | 1.0 | 0.00 | 0.37 | 0.37 | 91 | 1013.5 |
| 20260901210313 | 78 | 192 | 1.0 | 1.0 | 0.00 | 0.37 | 0.37 | 90 | 1013.3 |
| 20260901205809 | 78 | 156 | 1.0 | 1.0 | 0.00 | 0.37 | 0.37 | 89 | 1013.3 |
| 20260901205309 | 78 | 156 | 0.0 | 0.0 | 0.00 | 0.37 | 0.37 | 90 | 1013.5 |
| 20260901204803 | 78 | 156 | 1.0 | 2.0 | 0.00 | 0.37 | 0.37 | 93 | 1013.2 |
| 20260901204301 | 77 | 155 | 0.0 | 1.0 | 0.00 | 0.37 | 0.37 | 91 | 1013.6 |
| 20260901203800 | 77 | 155 | 1.0 | 1.0 | 0.00 | 0.37 | 0.37 | 92 | 1013.6 |
| 20260901203259 | 78 | 155 | 1.0 | 1.0 | 0.00 | 0.37 | 0.37 | 92 | 1013.6 |
| 20260901202753 | 77 | 155 | 0.0 | 1.0 | 0.00 | 0.37 | 0.37 | 92 | 1013.5 |
| 20260901202249 | 77 | 155 | 0.0 | 0.0 | 0.00 | 0.37 | 0.37 | 92 | 1013.9 |
| 20260901201745 | 76 | 155 | 0.0 | 0.0 | 0.00 | 0.37 | 0.37 | 94 | 1013.5 |
| 20260901201238 | 76 | 155 | 0.0 | 0.0 | 0.00 | 0.37 | 0.37 | 95 | 1013.3 |
| 20260901200732 | 76 | 155 | 0.0 | 0.0 | 0.00 | 0.37 | 0.37 | 95 | 1013.7 |
| 20260901200228 | 75 | 155 | 1.0 | 2.0 | 0.00 | 0.37 | 0.37 | 95 | 1013.7 |
| 20260901195726 | 76 | 155 | 1.0 | 1.0 | 0.00 | 0.37 | 0.37 | 94 | 1013.8 |
| 20260901195226 | 76 | 155 | 0.0 | 0.0 | 0.00 | 0.37 | 0.37 | 94 | 1013.7 |
| 20260901194721 | 75 | 155 | 0.0 | 0.0 | 0.00 | 0.37 | 0.37 | 96 | 1013.6 |
| 20260901194210 | 75 | 155 | 0.0 | 0.0 | 0.00 | 0.37 | 0.37 | 98 | 1013.8 |
| 20260901193706 | 75 | 155 | 0.0 | 0.0 | 0.00 | 0.37 | 0.37 | 97 | 1013.8 |
| 20260901193201 | 76 | 155 | 0.0 | 0.0 | 0.00 | 0.37 | 0.37 | 96 | 1013.8 |
| 20260901192701 | 76 | 155 | 0.0 | 0.0 | 0.00 | 0.37 | 0.37 | 93 | 1013.7 |
| 20260901192156 | 76 | 155 | 0.0 | 0.0 | 0.00 | 0.37 | 0.37 | 94 | 1013.8 |
| 20260901191651 | 76 | 155 | 0.0 | 1.0 | 0.00 | 0.37 | 0.37 | 93 | 1013.9 |